| time (UTC) | temp F | wind direction | speed MPH | gust MPH | rain 1hr in | rain 24hr in | rain mn in | humidity % | barometer mb |
| 20260901003531 | 94 | 0.0 | 1.0 | 0.00 | 0.00 | 0.00 | 39 | 1014.0 | |
| 20260901003029 | 94 | 0.0 | 2.0 | 0.00 | 0.00 | 0.00 | 39 | 1014.0 | |
| 20260901002527 | 94 | 0.0 | 3.0 | 0.00 | 0.00 | 0.00 | 39 | 1014.0 | |
| 20260901002024 | 95 | 0.0 | 1.0 | 0.00 | 0.00 | 0.00 | 39 | 1013.9 | |
| 20260901001521 | 95 | 0.0 | 3.0 | 0.00 | 0.00 | 0.00 | 39 | 1013.9 | |
| 20260901001019 | 95 | 0.0 | 2.0 | 0.00 | 0.00 | 0.00 | 39 | 1013.9 | |
| 20260901000517 | 96 | 0.0 | 3.0 | 0.00 | 0.00 | 0.00 | 38 | 1013.8 | |
| 20260901000014 | 96 | 167 | 1.0 | 4.0 | 0.00 | 0.00 | 0.00 | 38 | 1013.9 |
| 20260831235511 | 97 | 0.0 | 5.0 | 0.00 | 0.00 | 0.00 | 38 | 1013.8 | |
| 20260831235009 | 97 | 167 | 1.0 | 5.0 | 0.00 | 0.00 | 0.00 | 37 | 1013.9 |
| 20260831234507 | 98 | 0.0 | 3.0 | 0.00 | 0.00 | 0.00 | 37 | 1013.8 | |
| 20260831234004 | 98 | 167 | 1.0 | 5.0 | 0.00 | 0.00 | 0.00 | 36 | 1013.8 |
| 20260831233501 | 98 | 0.0 | 3.0 | 0.00 | 0.00 | 0.00 | 37 | 1013.9 | |
| 20260831232959 | 98 | 167 | 1.0 | 3.0 | 0.00 | 0.00 | 0.00 | 36 | 1013.8 |
| 20260831232457 | 98 | 0.0 | 3.0 | 0.00 | 0.00 | 0.00 | 36 | 1013.9 | |
| 20260831231954 | 98 | 0.0 | 8.0 | 0.00 | 0.00 | 0.00 | 35 | 1013.9 | |
| 20260831231450 | 98 | 167 | 3.0 | 8.0 | 0.00 | 0.00 | 0.00 | 35 | 1013.9 |
| 20260831230949 | 98 | 0.0 | 3.0 | 0.00 | 0.00 | 0.00 | 35 | 1013.9 | |
| 20260831230445 | 98 | 167 | 1.0 | 6.0 | 0.00 | 0.00 | 0.00 | 35 | 1013.9 |
| 20260831225943 | 98 | 167 | 1.0 | 6.0 | 0.00 | 0.00 | 0.00 | 35 | 1013.9 |
| 20260831225440 | 98 | 1.0 | 8.0 | 0.00 | 0.00 | 0.00 | 35 | 1014.0 | |
| 20260831224938 | 98 | 167 | 1.0 | 8.0 | 0.00 | 0.00 | 0.00 | 35 | 1013.9 |
| 20260831224434 | 98 | 167 | 1.0 | 7.0 | 0.00 | 0.00 | 0.00 | 36 | 1014.0 |
| 20260831223933 | 98 | 0.0 | 7.0 | 0.00 | 0.00 | 0.00 | 36 | 1014.0 | |
| 20260831223430 | 98 | 167 | 2.0 | 5.0 | 0.00 | 0.00 | 0.00 | 36 | 1014.1 |
| 20260831222928 | 97 | 0.0 | 5.0 | 0.00 | 0.00 | 0.00 | 37 | 1014.1 | |
| 20260831222424 | 97 | 167 | 1.0 | 5.0 | 0.00 | 0.00 | 0.00 | 37 | 1014.2 |
| 20260831221923 | 97 | 0.0 | 5.0 | 0.00 | 0.00 | 0.00 | 38 | 1014.2 | |
| 20260831221420 | 98 | 167 | 1.0 | 7.0 | 0.00 | 0.00 | 0.00 | 38 | 1014.2 |
| 20260831220918 | 98 | 1.0 | 7.0 | 0.00 | 0.00 | 0.00 | 37 | 1014.2 | |
| 20260831220414 | 98 | 167 | 1.0 | 10.0 | 0.00 | 0.00 | 0.00 | 37 | 1014.2 |
| 20260831215913 | 97 | 167 | 2.0 | 10.0 | 0.00 | 0.00 | 0.00 | 38 | 1014.3 |
| 20260831215410 | 97 | 163 | 1.0 | 6.0 | 0.00 | 0.00 | 0.00 | 39 | 1014.3 |
| 20260831214908 | 96 | 0.0 | 7.0 | 0.00 | 0.00 | 0.00 | 39 | 1014.3 | |
| 20260831214404 | 96 | 163 | 1.0 | 7.0 | 0.00 | 0.00 | 0.00 | 38 | 1014.5 |
| 20260831213903 | 98 | 162 | 1.0 | 7.0 | 0.00 | 0.00 | 0.00 | 37 | 1014.5 |
| 20260831213400 | 99 | 162 | 1.0 | 7.0 | 0.00 | 0.00 | 0.00 | 37 | 1014.5 |
| 20260831212858 | 98 | 0.0 | 5.0 | 0.00 | 0.00 | 0.00 | 37 | 1014.5 | |
| 20260831212354 | 98 | 0.0 | 6.0 | 0.00 | 0.00 | 0.00 | 38 | 1014.6 | |
| 20260831211853 | 98 | 0.0 | 8.0 | 0.00 | 0.00 | 0.00 | 37 | 1014.8 | |
| 20260831211350 | 99 | 161 | 2.0 | 8.0 | 0.00 | 0.00 | 0.00 | 37 | 1014.9 |
| 20260831210848 | 99 | 169 | 1.0 | 6.0 | 0.00 | 0.00 | 0.00 | 37 | 1014.8 |
| 20260831210344 | 99 | 169 | 1.0 | 5.0 | 0.00 | 0.00 | 0.00 | 36 | 1014.9 |
| 20260831205842 | 99 | 170 | 1.0 | 5.0 | 0.00 | 0.00 | 0.00 | 37 | 1015.0 |
| 20260831205340 | 100 | 169 | 1.0 | 6.0 | 0.00 | 0.00 | 0.00 | 37 | 1015.1 |
| 20260831204837 | 99 | 1.0 | 6.0 | 0.00 | 0.00 | 0.00 | 36 | 1015.2 | |
| 20260831204334 | 99 | 170 | 1.0 | 8.0 | 0.00 | 0.00 | 0.00 | 38 | 1015.3 |
| 20260831203832 | 98 | 186 | 2.0 | 8.0 | 0.00 | 0.00 | 0.00 | 39 | 1015.4 |
| 20260831203330 | 98 | 0.0 | 2.0 | 0.00 | 0.00 | 0.00 | 40 | 1015.6 | |
| 20260831202827 | 98 | 0.0 | 4.0 | 0.00 | 0.00 | 0.00 | 39 | 1015.6 | |
| 20260831202324 | 98 | 194 | 1.0 | 5.0 | 0.00 | 0.00 | 0.00 | 40 | 1015.6 |
| 20260831201822 | 97 | 0.0 | 5.0 | 0.00 | 0.00 | 0.00 | 41 | 1015.7 | |
| 20260831201318 | 97 | 0.0 | 4.0 | 0.00 | 0.00 | 0.00 | 42 | 1015.8 | |
| 20260831200817 | 97 | 0.0 | 7.0 | 0.00 | 0.00 | 0.00 | 42 | 1015.9 | |
| 20260831200314 | 97 | 193 | 2.0 | 11.0 | 0.00 | 0.00 | 0.00 | 42 | 1016.0 |
| 20260831195812 | 97 | 192 | 5.0 | 11.0 | 0.00 | 0.00 | 0.00 | 41 | 1016.1 |
| 20260831195308 | 98 | 185 | 1.0 | 8.0 | 0.00 | 0.00 | 0.00 | 41 | 1016.0 |
| 20260831194807 | 98 | 181 | 3.0 | 8.0 | 0.00 | 0.00 | 0.00 | 41 | 1016.2 |
| 20260831194304 | 97 | 0.0 | 6.0 | 0.00 | 0.00 | 0.00 | 43 | 1016.2 | |
| 20260831193802 | 96 | 184 | 1.0 | 6.0 | 0.00 | 0.00 | 0.00 | 42 | 1016.2 |
| 20260831193258 | 96 | 183 | 1.0 | 9.0 | 0.00 | 0.00 | 0.00 | 43 | 1016.3 |
| 20260831192757 | 96 | 183 | 3.0 | 9.0 | 0.00 | 0.00 | 0.00 | 43 | 1016.3 |
| 20260831192254 | 96 | 0.0 | 5.0 | 0.00 | 0.00 | 0.00 | 43 | 1016.3 | |
| 20260831191752 | 96 | 172 | 1.0 | 7.0 | 0.00 | 0.00 | 0.00 | 43 | 1016.5 |
| 20260831191248 | 96 | 173 | 1.0 | 9.0 | 0.00 | 0.00 | 0.00 | 43 | 1016.6 |
| 20260831190747 | 97 | 164 | 3.0 | 7.0 | 0.00 | 0.00 | 0.00 | 42 | 1016.7 |
| 20260831190244 | 97 | 0.0 | 8.0 | 0.00 | 0.00 | 0.00 | 42 | 1016.8 | |
| 20260831185742 | 97 | 163 | 3.0 | 8.0 | 0.00 | 0.00 | 0.00 | 42 | 1016.8 |
| 20260831185238 | 97 | 0.0 | 5.0 | 0.00 | 0.00 | 0.00 | 44 | 1016.8 | |
| 20260831184736 | 97 | 0.0 | 6.0 | 0.00 | 0.00 | 0.00 | 44 | 1016.8 | |
| 20260831184234 | 97 | 175 | 2.0 | 6.0 | 0.00 | 0.00 | 0.00 | 43 | 1016.9 |
| 20260831183731 | 97 | 0.0 | 3.0 | 0.00 | 0.00 | 0.00 | 42 | 1016.9 | |
| 20260831183229 | 96 | 0.0 | 4.0 | 0.00 | 0.00 | 0.00 | 42 | 1016.9 | |
| 20260831182726 | 96 | 177 | 1.0 | 6.0 | 0.00 | 0.00 | 0.00 | 42 | 1017.0 |
| 20260831182224 | 95 | 0.0 | 6.0 | 0.00 | 0.00 | 0.00 | 44 | 1017.0 | |
| 20260831181721 | 95 | 177 | 2.0 | 7.0 | 0.00 | 0.00 | 0.00 | 42 | 1017.1 |
| 20260831181218 | 95 | 171 | 3.0 | 8.0 | 0.00 | 0.00 | 0.00 | 42 | 1017.2 |
| 20260831180716 | 94 | 0.0 | 5.0 | 0.00 | 0.00 | 0.00 | 43 | 1017.1 | |
| 20260831180214 | 94 | 0.0 | 6.0 | 0.00 | 0.00 | 0.00 | 46 | 1017.2 | |
| 20260831175711 | 94 | 188 | 3.0 | 7.0 | 0.00 | 0.00 | 0.00 | 45 | 1017.4 |
| 20260831175208 | 94 | 197 | 2.0 | 7.0 | 0.00 | 0.00 | 0.00 | 45 | 1017.4 |
| 20260831174706 | 94 | 196 | 1.0 | 4.0 | 0.00 | 0.00 | 0.00 | 47 | 1017.6 |
| 20260831174202 | 94 | 0.0 | 5.0 | 0.00 | 0.00 | 0.00 | 47 | 1017.6 | |
| 20260831173701 | 93 | 196 | 2.0 | 7.0 | 0.00 | 0.00 | 0.00 | 46 | 1017.6 |
| 20260831173158 | 93 | 196 | 2.0 | 7.0 | 0.00 | 0.00 | 0.00 | 48 | 1017.8 |
| 20260831172656 | 93 | 197 | 1.0 | 6.0 | 0.00 | 0.00 | 0.00 | 49 | 1017.7 |
| 20260831172152 | 92 | 198 | 1.0 | 7.0 | 0.00 | 0.00 | 0.00 | 49 | 1017.8 |
| 20260831171651 | 92 | 198 | 2.0 | 7.0 | 0.00 | 0.00 | 0.00 | 49 | 1017.9 |
| 20260831171148 | 92 | 198 | 1.0 | 9.0 | 0.00 | 0.00 | 0.00 | 51 | 1017.9 |
| 20260831170646 | 92 | 199 | 2.0 | 9.0 | 0.00 | 0.00 | 0.00 | 52 | 1018.0 |
| 20260831170142 | 92 | 212 | 2.0 | 6.0 | 0.00 | 0.00 | 0.00 | 53 | 1018.0 |
| 20260831165641 | 92 | 212 | 2.0 | 6.0 | 0.00 | 0.00 | 0.00 | 52 | 1018.0 |
| 20260831165138 | 91 | 213 | 1.0 | 4.0 | 0.00 | 0.00 | 0.00 | 54 | 1017.9 |
| 20260831164635 | 91 | 0.0 | 7.0 | 0.00 | 0.00 | 0.00 | 56 | 1018.0 | |
| 20260831164132 | 91 | 213 | 2.0 | 7.0 | 0.00 | 0.00 | 0.00 | 57 | 1018.1 |
| 20260831163630 | 91 | 213 | 1.0 | 6.0 | 0.00 | 0.00 | 0.00 | 56 | 1017.9 |
| 20260831163128 | 90 | 213 | 1.0 | 6.0 | 0.00 | 0.00 | 0.00 | 57 | 1018.0 |
| 20260831162625 | 90 | 0.0 | 6.0 | 0.00 | 0.00 | 0.00 | 57 | 1018.0 | |
| 20260831162122 | 90 | 213 | 1.0 | 6.0 | 0.00 | 0.00 | 0.00 | 59 | 1018.0 |
| 20260831161620 | 90 | 0.0 | 3.0 | 0.00 | 0.00 | 0.00 | 61 | 1018.0 | |
| 20260831161118 | 89 | 0.0 | 4.0 | 0.00 | 0.00 | 0.00 | 61 | 1018.0 | |
| 20260831160615 | 89 | 213 | 1.0 | 6.0 | 0.00 | 0.00 | 0.00 | 60 | 1018.0 |
| 20260831160112 | 88 | 203 | 2.0 | 6.0 | 0.00 | 0.00 | 0.00 | 63 | 1018.0 |
| 20260831155610 | 88 | 1.0 | 5.0 | 0.00 | 0.00 | 0.00 | 63 | 1018.0 | |
| 20260831155108 | 88 | 0.0 | 6.0 | 0.00 | 0.00 | 0.00 | 65 | 1018.1 | |
| 20260831154605 | 88 | 200 | 1.0 | 5.0 | 0.00 | 0.00 | 0.00 | 65 | 1018.0 |
| 20260831154102 | 87 | 200 | 1.0 | 6.0 | 0.00 | 0.00 | 0.00 | 64 | 1018.0 |
| 20260831153600 | 87 | 200 | 1.0 | 6.0 | 0.00 | 0.00 | 0.00 | 65 | 1017.9 |
| 20260831153058 | 87 | 200 | 2.0 | 5.0 | 0.00 | 0.00 | 0.00 | 65 | 1017.9 |
| 20260831152555 | 87 | 200 | 2.0 | 5.0 | 0.00 | 0.00 | 0.00 | 66 | 1017.9 |
| 20260831152052 | 86 | 0.0 | 4.0 | 0.00 | 0.00 | 0.00 | 69 | 1017.9 | |
| 20260831151550 | 86 | 0.0 | 4.0 | 0.00 | 0.00 | 0.00 | 69 | 1017.8 | |
| 20260831151046 | 85 | 0.0 | 4.0 | 0.00 | 0.00 | 0.00 | 71 | 1017.8 | |
| 20260831150545 | 84 | 1.0 | 6.0 | 0.00 | 0.00 | 0.00 | 71 | 1017.8 | |
| 20260831150042 | 84 | 200 | 2.0 | 6.0 | 0.00 | 0.00 | 0.00 | 72 | 1017.8 |
| 20260831145540 | 84 | 200 | 1.0 | 6.0 | 0.00 | 0.00 | 0.00 | 73 | 1017.7 |
| 20260831145036 | 84 | 0.0 | 5.0 | 0.00 | 0.00 | 0.00 | 74 | 1017.6 | |
| 20260831144535 | 83 | 200 | 1.0 | 7.0 | 0.00 | 0.00 | 0.00 | 76 | 1017.6 |
| 20260831144032 | 83 | 200 | 2.0 | 7.0 | 0.00 | 0.00 | 0.00 | 77 | 1017.6 |
| 20260831143529 | 82 | 0.0 | 4.0 | 0.00 | 0.00 | 0.00 | 78 | 1017.6 | |
| 20260831143026 | 81 | 200 | 1.0 | 3.0 | 0.00 | 0.00 | 0.00 | 79 | 1017.6 |
| 20260831142524 | 81 | 0.0 | 4.0 | 0.00 | 0.00 | 0.00 | 80 | 1017.6 | |
| 20260831142022 | 81 | 200 | 1.0 | 6.0 | 0.00 | 0.00 | 0.00 | 80 | 1017.6 |
| 20260831141519 | 81 | 200 | 2.0 | 6.0 | 0.00 | 0.00 | 0.00 | 81 | 1017.5 |
| 20260831141016 | 81 | 0.0 | 4.0 | 0.00 | 0.00 | 0.00 | 81 | 1017.5 | |
| 20260831140514 | 80 | 200 | 1.0 | 4.0 | 0.00 | 0.00 | 0.00 | 83 | 1017.4 |
| 20260831140012 | 80 | 200 | 1.0 | 5.0 | 0.00 | 0.00 | 0.00 | 83 | 1017.4 |
| 20260831135509 | 80 | 200 | 2.0 | 5.0 | 0.00 | 0.00 | 0.00 | 84 | 1017.3 |
| 20260831135006 | 80 | 0.0 | 6.0 | 0.00 | 0.00 | 0.00 | 84 | 1017.2 | |
| 20260831134504 | 79 | 200 | 1.0 | 6.0 | 0.00 | 0.00 | 0.00 | 85 | 1017.2 |
| 20260831134002 | 79 | 200 | 1.0 | 5.0 | 0.00 | 0.00 | 0.00 | 86 | 1017.1 |
| 20260831133459 | 79 | 200 | 1.0 | 4.0 | 0.00 | 0.00 | 0.00 | 86 | 1017.2 |
| 20260831132956 | 79 | 0.0 | 4.0 | 0.00 | 0.00 | 0.00 | 87 | 1017.2 | |
| 20260831132454 | 78 | 200 | 1.0 | 4.0 | 0.00 | 0.00 | 0.00 | 87 | 1017.1 |
| 20260831131952 | 78 | 0.0 | 4.0 | 0.00 | 0.00 | 0.00 | 87 | 1017.1 | |
| 20260831131449 | 78 | 200 | 1.0 | 4.0 | 0.00 | 0.00 | 0.00 | 88 | 1017.1 |
| 20260831130946 | 78 | 200 | 1.0 | 4.0 | 0.00 | 0.00 | 0.00 | 88 | 1017.0 |
| 20260831130444 | 77 | 0.0 | 0.0 | 0.00 | 0.00 | 0.00 | 89 | 1016.9 | |
| 20260831125944 | 77 | 0.0 | 1.0 | 0.00 | 0.00 | 0.00 | 89 | 1016.8 | |
| 20260831125439 | 77 | 0.0 | 1.0 | 0.00 | 0.00 | 0.00 | 89 | 1016.9 | |
| 20260831124936 | 77 | 0.0 | 0.0 | 0.00 | 0.00 | 0.00 | 89 | 1016.8 | |
| 20260831124434 | 77 | 0.0 | 0.0 | 0.00 | 0.00 | 0.00 | 89 | 1016.7 | |
| 20260831123932 | 77 | 0.0 | 0.0 | 0.00 | 0.00 | 0.00 | 89 | 1016.6 | |
| 20260831123429 | 77 | 0.0 | 0.0 | 0.00 | 0.00 | 0.00 | 89 | 1016.7 | |
| 20260831122926 | 77 | 0.0 | 0.0 | 0.00 | 0.00 | 0.00 | 88 | 1016.6 | |
| 20260831122423 | 77 | 0.0 | 2.0 | 0.00 | 0.00 | 0.00 | 88 | 1016.6 | |
| 20260831121920 | 77 | 0.0 | 2.0 | 0.00 | 0.00 | 0.00 | 88 | 1016.7 | |
| 20260831121418 | 77 | 0.0 | 2.0 | 0.00 | 0.00 | 0.00 | 88 | 1016.6 | |
| 20260831120916 | 77 | 0.0 | 2.0 | 0.00 | 0.00 | 0.00 | 88 | 1016.6 | |
| 20260831120413 | 77 | 0.0 | 0.0 | 0.00 | 0.00 | 0.00 | 88 | 1016.7 | |
| 20260831115909 | 77 | 0.0 | 4.0 | 0.00 | 0.00 | 0.00 | 88 | 1016.7 | |
| 20260831115408 | 77 | 0.0 | 4.0 | 0.00 | 0.00 | 0.00 | 88 | 1016.6 | |
| 20260831114906 | 77 | 0.0 | 2.0 | 0.00 | 0.00 | 0.00 | 87 | 1016.5 | |
| 20260831114403 | 77 | 0.0 | 3.0 | 0.00 | 0.00 | 0.00 | 87 | 1016.5 | |
| 20260831113859 | 77 | 0.0 | 3.0 | 0.00 | 0.00 | 0.00 | 87 | 1016.5 | |
| 20260831113358 | 77 | 0.0 | 3.0 | 0.00 | 0.00 | 0.00 | 87 | 1016.5 | |
| 20260831112855 | 77 | 0.0 | 3.0 | 0.00 | 0.00 | 0.00 | 87 | 1016.4 | |
| 20260831112353 | 77 | 0.0 | 2.0 | 0.00 | 0.00 | 0.00 | 87 | 1016.4 | |
| 20260831111849 | 77 | 0.0 | 6.0 | 0.00 | 0.00 | 0.00 | 87 | 1016.4 | |
| 20260831111348 | 77 | 177 | 1.0 | 6.0 | 0.00 | 0.00 | 0.00 | 86 | 1016.4 |
| 20260831110845 | 77 | 0.0 | 3.0 | 0.00 | 0.00 | 0.00 | 86 | 1016.3 | |
| 20260831110343 | 77 | 0.0 | 4.0 | 0.00 | 0.00 | 0.00 | 86 | 1016.3 | |
| 20260831105839 | 77 | 0.0 | 3.0 | 0.00 | 0.00 | 0.00 | 86 | 1016.3 | |
| 20260831105338 | 77 | 0.0 | 3.0 | 0.00 | 0.00 | 0.00 | 86 | 1016.3 | |
| 20260831104835 | 77 | 1.0 | 3.0 | 0.00 | 0.00 | 0.00 | 86 | 1016.3 | |
| 20260831104333 | 77 | 0.0 | 5.0 | 0.00 | 0.00 | 0.00 | 86 | 1016.3 | |
| 20260831103829 | 77 | 0.0 | 3.0 | 0.00 | 0.00 | 0.00 | 87 | 1016.3 | |
| 20260831103328 | 77 | 0.0 | 1.0 | 0.00 | 0.00 | 0.00 | 86 | 1016.3 | |
| 20260831102825 | 78 | 0.0 | 0.0 | 0.00 | 0.00 | 0.00 | 86 | 1016.3 | |
| 20260831102322 | 78 | 0.0 | 4.0 | 0.00 | 0.00 | 0.00 | 86 | 1016.3 | |
| 20260831101819 | 78 | 0.0 | 4.0 | 0.00 | 0.00 | 0.00 | 86 | 1016.4 | |
| 20260831101317 | 78 | 0.0 | 5.0 | 0.00 | 0.00 | 0.00 | 86 | 1016.4 | |
| 20260831100815 | 78 | 175 | 1.0 | 5.0 | 0.00 | 0.00 | 0.00 | 86 | 1016.5 |
| 20260831100312 | 78 | 0.0 | 2.0 | 0.00 | 0.00 | 0.00 | 86 | 1016.5 | |
| 20260831095809 | 78 | 0.0 | 3.0 | 0.00 | 0.00 | 0.00 | 86 | 1016.4 | |
| 20260831095307 | 78 | 1.0 | 3.0 | 0.00 | 0.00 | 0.00 | 86 | 1016.4 | |
| 20260831094803 | 78 | 0.0 | 3.0 | 0.00 | 0.00 | 0.00 | 85 | 1016.4 | |
| 20260831094302 | 78 | 0.0 | 5.0 | 0.00 | 0.00 | 0.00 | 85 | 1016.3 | |
| 20260831093759 | 78 | 0.0 | 5.0 | 0.00 | 0.00 | 0.00 | 85 | 1016.3 | |
| 20260831093257 | 78 | 0.0 | 3.0 | 0.00 | 0.00 | 0.00 | 85 | 1016.3 | |
| 20260831092753 | 78 | 0.0 | 2.0 | 0.00 | 0.00 | 0.00 | 84 | 1016.3 | |
| 20260831092252 | 78 | 0.0 | 2.0 | 0.00 | 0.00 | 0.00 | 84 | 1016.3 | |
| 20260831091749 | 78 | 0.0 | 2.0 | 0.00 | 0.00 | 0.00 | 84 | 1016.3 | |
| 20260831091247 | 78 | 0.0 | 0.0 | 0.00 | 0.00 | 0.00 | 83 | 1016.2 | |
| 20260831090743 | 78 | 0.0 | 0.0 | 0.00 | 0.00 | 0.00 | 83 | 1016.2 | |
| 20260831090242 | 78 | 0.0 | 3.0 | 0.00 | 0.00 | 0.00 | 83 | 1016.2 | |
| 20260831085739 | 79 | 0.0 | 3.0 | 0.00 | 0.00 | 0.00 | 82 | 1016.2 | |
| 20260831085237 | 79 | 0.0 | 2.0 | 0.00 | 0.00 | 0.00 | 82 | 1016.3 | |
| 20260831084733 | 79 | 0.0 | 4.0 | 0.00 | 0.00 | 0.00 | 82 | 1016.2 | |
| 20260831084232 | 79 | 175 | 1.0 | 4.0 | 0.00 | 0.00 | 0.00 | 81 | 1016.3 |
| 20260831083729 | 79 | 0.0 | 6.0 | 0.00 | 0.00 | 0.00 | 80 | 1016.3 | |
| 20260831083227 | 79 | 175 | 3.0 | 6.0 | 0.00 | 0.00 | 0.00 | 80 | 1016.3 |
| 20260831082723 | 79 | 174 | 1.0 | 10.0 | 0.00 | 0.00 | 0.00 | 80 | 1016.3 |
| 20260831082222 | 79 | 174 | 2.0 | 10.0 | 0.00 | 0.00 | 0.00 | 79 | 1016.3 |
| 20260831081719 | 79 | 186 | 1.0 | 5.0 | 0.00 | 0.00 | 0.00 | 78 | 1016.3 |
| 20260831081216 | 79 | 186 | 1.0 | 6.0 | 0.00 | 0.00 | 0.00 | 78 | 1016.2 |
| 20260831080713 | 79 | 186 | 1.0 | 4.0 | 0.00 | 0.00 | 0.00 | 77 | 1016.2 |
| 20260831080211 | 79 | 186 | 1.0 | 4.0 | 0.00 | 0.00 | 0.00 | 77 | 1016.2 |
| 20260831075709 | 80 | 0.0 | 3.0 | 0.00 | 0.00 | 0.00 | 76 | 1016.2 | |
| 20260831075206 | 80 | 0.0 | 3.0 | 0.00 | 0.00 | 0.00 | 76 | 1016.1 | |
| 20260831074703 | 80 | 0.0 | 3.0 | 0.00 | 0.00 | 0.00 | 76 | 1016.2 | |
| 20260831074201 | 80 | 186 | 1.0 | 3.0 | 0.00 | 0.00 | 0.00 | 76 | 1016.1 |
| 20260831073659 | 80 | 0.0 | 2.0 | 0.00 | 0.00 | 0.00 | 76 | 1016.2 | |
| 20260831073156 | 80 | 0.0 | 0.0 | 0.00 | 0.00 | 0.00 | 76 | 1016.2 | |
| 20260831072653 | 80 | 0.0 | 0.0 | 0.00 | 0.00 | 0.00 | 75 | 1016.1 | |
| 20260831072151 | 80 | 0.0 | 0.0 | 0.00 | 0.00 | 0.00 | 75 | 1016.3 | |
| 20260831071647 | 80 | 0.0 | 0.0 | 0.00 | 0.00 | 0.00 | 75 | 1016.3 | |
| 20260831071146 | 81 | 0.0 | 0.0 | 0.00 | 0.00 | 0.00 | 74 | 1016.3 | |
| 20260831070643 | 81 | 0.0 | 0.0 | 0.00 | 0.00 | 0.00 | 74 | 1016.3 | |
| 20260831070141 | 81 | 0.0 | 0.0 | 0.00 | 0.00 | 0.00 | 73 | 1016.3 | |
| 20260831065637 | 81 | 0.0 | 0.0 | 0.00 | 0.00 | 0.00 | 73 | 1016.2 | |
| 20260831065136 | 81 | 0.0 | 0.0 | 0.00 | 0.00 | 0.00 | 72 | 1016.2 | |
| 20260831064633 | 82 | 0.0 | 0.0 | 0.00 | 0.00 | 0.00 | 72 | 1016.2 | |
| 20260831064131 | 82 | 0.0 | 0.0 | 0.00 | 0.00 | 0.00 | 71 | 1016.3 | |
| 20260831063627 | 82 | 0.0 | 0.0 | 0.00 | 0.00 | 0.00 | 71 | 1016.4 | |
| 20260831063126 | 82 | 0.0 | 0.0 | 0.00 | 0.00 | 0.00 | 70 | 1016.3 | |
| 20260831062623 | 82 | 0.0 | 0.0 | 0.00 | 0.00 | 0.00 | 70 | 1016.4 | |
| 20260831062121 | 82 | 0.0 | 4.0 | 0.00 | 0.00 | 0.00 | 69 | 1016.3 | |
| 20260831061617 | 83 | 186 | 1.0 | 4.0 | 0.00 | 0.00 | 0.00 | 69 | 1016.3 |
| 20260831061115 | 83 | 186 | 1.0 | 4.0 | 0.00 | 0.00 | 0.00 | 69 | 1016.3 |
| 20260831060613 | 83 | 0.0 | 3.0 | 0.00 | 0.00 | 0.00 | 68 | 1016.4 | |
| 20260831060110 | 83 | 0.0 | 0.0 | 0.00 | 0.00 | 0.00 | 68 | 1016.3 | |
| 20260831055607 | 83 | 0.0 | 2.0 | 0.00 | 0.00 | 0.00 | 67 | 1016.2 | |
| 20260831055105 | 83 | 0.0 | 2.0 | 0.00 | 0.00 | 0.00 | 67 | 1016.2 | |
| 20260831054603 | 83 | 0.0 | 2.0 | 0.00 | 0.00 | 0.00 | 66 | 1016.2 | |
| 20260831054100 | 84 | 0.0 | 2.0 | 0.00 | 0.00 | 0.00 | 66 | 1016.3 | |
| 20260831053557 | 84 | 0.0 | 2.0 | 0.00 | 0.00 | 0.00 | 65 | 1016.2 | |
| 20260831053055 | 84 | 0.0 | 2.0 | 0.00 | 0.00 | 0.00 | 65 | 1016.2 | |
| 20260831052553 | 84 | 0.0 | 0.0 | 0.00 | 0.00 | 0.00 | 64 | 1016.1 | |
| 20260831052050 | 84 | 0.0 | 0.0 | 0.00 | 0.00 | 0.00 | 64 | 1016.0 | |
| 20260831051547 | 84 | 0.0 | 3.0 | 0.00 | 0.00 | 0.00 | 64 | 1016.0 | |
| 20260831051045 | 85 | 0.0 | 3.0 | 0.00 | 0.00 | 0.00 | 63 | 1015.9 | |
| 20260831050543 | 85 | 0.0 | 4.0 | 0.00 | 0.00 | 0.00 | 63 | 1016.0 | |
| 20260831050040 | 85 | 186 | 1.0 | 4.0 | 0.00 | 0.00 | 0.00 | 63 | 1016.0 |
| 20260831045537 | 85 | 0.0 | 5.0 | 0.00 | 0.00 | 0.00 | 62 | 1015.8 | |
| 20260831045035 | 85 | 1.0 | 6.0 | 0.00 | 0.00 | 0.00 | 62 | 1015.8 | |
| 20260831044533 | 85 | 186 | 1.0 | 6.0 | 0.00 | 0.00 | 0.00 | 62 | 1015.8 |
| 20260831044030 | 85 | 177 | 1.0 | 6.0 | 0.00 | 0.00 | 0.00 | 62 | 1015.7 |
| 20260831043527 | 86 | 177 | 1.0 | 6.0 | 0.00 | 0.00 | 0.00 | 62 | 1015.7 |
| 20260831043025 | 86 | 177 | 1.0 | 5.0 | 0.00 | 0.00 | 0.00 | 62 | 1015.8 |
| 20260831042523 | 86 | 177 | 1.0 | 10.0 | 0.00 | 0.00 | 0.00 | 61 | 1015.8 |
| 20260831042020 | 86 | 1.0 | 10.0 | 0.00 | 0.00 | 0.00 | 61 | 1015.7 | |
| 20260831041517 | 86 | 175 | 1.0 | 7.0 | 0.00 | 0.00 | 0.00 | 61 | 1015.7 |
| 20260831041015 | 86 | 2.0 | 8.0 | 0.00 | 0.00 | 0.00 | 60 | 1015.7 | |
| 20260831040346 | 87 | 185 | 1.0 | 8.0 | 0.00 | 0.00 | 0.00 | 60 | 1015.7 |
| 20260831035844 | 87 | 174 | 2.0 | 10.0 | 0.00 | 0.00 | 0.00 | 60 | 1015.6 |
| 20260831035340 | 87 | 160 | 2.0 | 10.0 | 0.00 | 0.00 | 0.00 | 60 | 1015.6 |
| 20260831034838 | 87 | 145 | 1.0 | 8.0 | 0.00 | 0.00 | 0.00 | 60 | 1015.5 |
| 20260831034336 | 87 | 140 | 2.0 | 10.0 | 0.00 | 0.00 | 0.00 | 60 | 1015.5 |
| 20260831033834 | 87 | 154 | 4.0 | 10.0 | 0.00 | 0.00 | 0.00 | 60 | 1015.5 |
| 20260831033330 | 87 | 162 | 2.0 | 8.0 | 0.00 | 0.00 | 0.00 | 60 | 1015.4 |
| 20260831032828 | 87 | 161 | 1.0 | 8.0 | 0.00 | 0.00 | 0.00 | 60 | 1015.3 |
| 20260831032326 | 87 | 166 | 2.0 | 8.0 | 0.00 | 0.00 | 0.00 | 60 | 1015.2 |
| 20260831031824 | 87 | 162 | 3.0 | 7.0 | 0.00 | 0.00 | 0.00 | 60 | 1015.2 |
| 20260831031320 | 87 | 157 | 2.0 | 7.0 | 0.00 | 0.00 | 0.00 | 60 | 1015.3 |
| 20260831030818 | 88 | 1.0 | 7.0 | 0.00 | 0.00 | 0.00 | 60 | 1015.1 | |
| 20260831030316 | 88 | 157 | 2.0 | 7.0 | 0.00 | 0.00 | 0.00 | 59 | 1015.0 |
| 20260831025814 | 88 | 156 | 1.0 | 6.0 | 0.00 | 0.00 | 0.00 | 59 | 1015.0 |
| 20260831025310 | 88 | 156 | 1.0 | 6.0 | 0.00 | 0.00 | 0.00 | 58 | 1014.9 |
| 20260831024808 | 88 | 157 | 2.0 | 9.0 | 0.00 | 0.00 | 0.00 | 58 | 1014.8 |
| 20260831024306 | 88 | 166 | 3.0 | 10.0 | 0.00 | 0.00 | 0.00 | 57 | 1014.8 |
| 20260831023804 | 88 | 201 | 1.0 | 10.0 | 0.00 | 0.00 | 0.00 | 56 | 1014.8 |
| 20260831023300 | 88 | 0.0 | 7.0 | 0.00 | 0.00 | 0.00 | 55 | 1014.7 | |
| 20260831022758 | 87 | 166 | 1.0 | 6.0 | 0.00 | 0.00 | 0.00 | 54 | 1014.6 |
| 20260831022256 | 87 | 166 | 1.0 | 6.0 | 0.00 | 0.00 | 0.00 | 52 | 1014.5 |
| 20260831021754 | 86 | 0.0 | 0.0 | 0.00 | 0.00 | 0.00 | 52 | 1014.3 | |
| 20260831021250 | 86 | 0.0 | 0.0 | 0.00 | 0.00 | 0.00 | 52 | 1014.2 | |
| 20260831020748 | 86 | 0.0 | 0.0 | 0.00 | 0.00 | 0.00 | 52 | 1014.2 | |
| 20260831020246 | 87 | 0.0 | 0.0 | 0.00 | 0.00 | 0.00 | 52 | 1014.1 | |
| 20260831015744 | 87 | 0.0 | 0.0 | 0.00 | 0.00 | 0.00 | 52 | 1014.1 | |
| 20260831015240 | 87 | 0.0 | 0.0 | 0.00 | 0.00 | 0.00 | 52 | 1014.0 | |
| 20260831014738 | 88 | 0.0 | 0.0 | 0.00 | 0.00 | 0.00 | 51 | 1014.0 | |
| 20260831014236 | 88 | 0.0 | 0.0 | 0.00 | 0.00 | 0.00 | 51 | 1013.9 | |
| 20260831013732 | 88 | 0.0 | 0.0 | 0.00 | 0.00 | 0.00 | 50 | 1013.7 | |
| 20260831013230 | 89 | 0.0 | 0.0 | 0.00 | 0.00 | 0.00 | 50 | 1013.8 | |
| 20260831012728 | 89 | 0.0 | 0.0 | 0.00 | 0.00 | 0.00 | 50 | 1013.7 | |
| 20260831012226 | 89 | 0.0 | 0.0 | 0.00 | 0.00 | 0.00 | 49 | 1013.7 | |
| 20260831011724 | 90 | 0.0 | 0.0 | 0.00 | 0.00 | 0.00 | 48 | 1013.6 | |
| 20260831011220 | 90 | 0.0 | 0.0 | 0.00 | 0.00 | 0.00 | 48 | 1013.6 | |
| 20260831010718 | 91 | 0.0 | 0.0 | 0.00 | 0.00 | 0.00 | 47 | 1013.6 | |
| 20260831010216 | 91 | 0.0 | 2.0 | 0.00 | 0.00 | 0.00 | 46 | 1013.6 | |
| 20260831005714 | 91 | 0.0 | 2.0 | 0.00 | 0.00 | 0.00 | 46 | 1013.6 | |
| 20260831005210 | 92 | 0.0 | 0.0 | 0.00 | 0.00 | 0.00 | 46 | 1013.5 | |
| 20260831004708 | 92 | 0.0 | 1.0 | 0.00 | 0.00 | 0.00 | 46 | 1013.6 | |
| 20260831004206 | 92 | 0.0 | 1.0 | 0.00 | 0.00 | 0.00 | 45 | 1013.5 |